Time,TemperatureF,DewpointF,PressureIn,WindDirection,WindDirectionDegrees,WindSpeedMPH,WindSpeedGustMPH,Humidity,HourlyPrecipIn,Conditions,Clouds,dailyrainin,SoftwareType,DateUTC
2013-03-16 00:02:00,33.0,33.0,-100.00,SSE,165,0.0,0.0,99,-99.99,,,-99.99,,2013-03-16 04:02:00,
2013-03-16 00:13:00,33.0,33.0,-100.00,SSE,165,0.0,0.0,99,-99.99,,,-99.99,,2013-03-16 04:13:00,
2013-03-16 00:23:00,33.0,33.0,-100.00,SE,135,0.0,0.0,99,-99.99,,,-99.99,,2013-03-16 04:23:00,
2013-03-16 00:33:00,33.0,33.0,-100.00,SSE,165,1.0,2.0,99,-99.99,,,-99.99,,2013-03-16 04:33:00,
2013-03-16 00:43:00,33.0,33.0,-100.00,SSE,165,0.0,4.0,99,-99.99,,,-99.99,,2013-03-16 04:43:00,
2013-03-16 00:52:00,33.0,33.0,-100.00,SSE,160,0.0,4.0,99,-99.99,,,-99.99,,2013-03-16 04:52:00,
2013-03-16 01:02:00,33.0,33.0,-100.00,South,170,1.0,3.0,99,-99.99,,,-99.99,,2013-03-16 05:02:00,
2013-03-16 01:12:00,33.0,33.0,-100.00,SSE,165,0.0,4.0,99,-99.99,,,-99.99,,2013-03-16 05:12:00,
2013-03-16 01:22:00,33.0,33.0,-100.00,SSE,165,1.0,3.0,99,-99.99,,,-99.99,,2013-03-16 05:22:00,
2013-03-16 01:32:00,33.0,33.0,-100.00,SSE,165,0.0,4.0,99,-99.99,,,-99.99,,2013-03-16 05:32:00,
2013-03-16 01:42:00,33.0,33.0,-100.00,SSE,160,1.0,3.0,99,-99.99,,,-99.99,,2013-03-16 05:42:00,
2013-03-16 01:52:00,33.0,33.0,-100.00,South,170,2.0,6.0,99,-99.99,,,-99.99,,2013-03-16 05:52:00,
2013-03-16 02:02:00,33.0,33.0,-100.00,South,180,3.0,5.0,99,-99.99,,,-99.99,,2013-03-16 06:02:00,
2013-03-16 02:12:00,33.0,33.0,-100.00,South,185,2.0,6.0,99,-99.99,,,-99.99,,2013-03-16 06:12:00,
2013-03-16 02:22:00,33.0,33.0,-100.00,SSE,155,3.0,5.0,99,-99.99,,,-99.99,,2013-03-16 06:22:00,
2013-03-16 02:32:00,33.0,33.0,-100.00,SSE,165,3.0,4.0,99,-99.99,,,-99.99,,2013-03-16 06:32:00,
2013-03-16 02:42:00,33.0,33.0,-100.00,South,170,3.0,7.0,99,-99.99,,,-99.99,,2013-03-16 06:42:00,
2013-03-16 02:52:00,33.0,33.0,-100.00,SE,145,2.0,4.0,99,-99.99,,,-99.99,,2013-03-16 06:52:00,
2013-03-16 03:02:00,33.0,33.0,-100.00,SSE,160,2.0,5.0,99,-99.99,,,-99.99,,2013-03-16 07:02:00,
2013-03-16 03:12:00,33.0,33.0,-100.00,SSE,150,2.0,4.0,99,-99.99,,,-99.99,,2013-03-16 07:12:00,
2013-03-16 03:22:00,33.0,33.0,-100.00,SSE,155,3.0,6.0,99,-99.99,,,-99.99,,2013-03-16 07:22:00,
2013-03-16 03:32:00,33.0,33.0,-100.00,SE,145,2.0,4.0,99,-99.99,,,-99.99,,2013-03-16 07:32:00,
2013-03-16 03:42:00,33.0,33.0,-100.00,SSE,155,2.0,5.0,99,-99.99,,,-99.99,,2013-03-16 07:42:00,
2013-03-16 03:52:00,33.0,33.0,-100.00,SSE,165,2.0,6.0,99,-99.99,,,-99.99,,2013-03-16 07:52:00,
2013-03-16 04:03:00,33.0,33.0,-100.00,SSE,150,2.0,4.0,99,-99.99,,,-99.99,,2013-03-16 08:03:00,
2013-03-16 04:12:00,33.0,33.0,-100.00,SE,140,2.0,4.0,99,-99.99,,,-99.99,,2013-03-16 08:12:00,
2013-03-16 04:23:00,33.0,33.0,-100.00,SE,125,3.0,6.0,99,-99.99,,,-99.99,,2013-03-16 08:23:00,
2013-03-16 04:32:00,33.0,33.0,-100.00,SSE,150,2.0,7.0,99,-99.99,,,-99.99,,2013-03-16 08:32:00,
2013-03-16 04:42:00,33.0,33.0,-100.00,SSE,150,2.0,7.0,99,-99.99,,,-99.99,,2013-03-16 08:42:00,
2013-03-16 04:52:00,33.0,33.0,-100.00,ESE,105,4.0,7.0,99,-99.99,,,-99.99,,2013-03-16 08:52:00,
2013-03-16 05:02:00,33.0,33.0,-100.00,ESE,110,3.0,7.0,99,-99.99,,,-99.99,,2013-03-16 09:02:00,
2013-03-16 05:12:00,33.0,33.0,-100.00,SSE,150,6.0,11.0,99,-99.99,,,-99.99,,2013-03-16 09:12:00,
2013-03-16 05:22:00,33.0,33.0,-100.00,SE,140,4.0,11.0,99,-99.99,,,-99.99,,2013-03-16 09:22:00,
2013-03-16 05:33:00,33.0,33.0,-100.00,SE,140,5.0,10.0,99,-99.99,,,-99.99,,2013-03-16 09:33:00,
2013-03-16 05:42:00,33.0,33.0,-100.00,SE,140,4.0,9.0,99,-99.99,,,-99.99,,2013-03-16 09:42:00,
2013-03-16 05:52:00,33.0,33.0,-100.00,SE,145,4.0,7.0,99,-99.99,,,-99.99,,2013-03-16 09:52:00,
2013-03-16 06:03:00,33.0,33.0,-100.00,SSE,165,3.0,6.0,99,-99.99,,,-99.99,,2013-03-16 10:03:00,
2013-03-16 06:12:00,33.0,33.0,-100.00,SE,145,4.0,7.0,99,-99.99,,,-99.99,,2013-03-16 10:12:00,
2013-03-16 06:23:00,33.0,33.0,-100.00,ESE,115,1.0,8.0,99,-99.99,,,-99.99,,2013-03-16 10:23:00,
2013-03-16 06:32:00,33.0,33.0,-100.00,SE,130,2.0,7.0,99,-99.99,,,-99.99,,2013-03-16 10:32:00,
2013-03-16 06:42:00,33.0,33.0,-100.00,ESE,105,4.0,6.0,99,-99.99,,,-99.99,,2013-03-16 10:42:00,
2013-03-16 06:52:00,33.0,33.0,-100.00,East,95,2.0,6.0,99,-99.99,,,-99.99,,2013-03-16 10:52:00,
2013-03-16 07:03:00,33.0,33.0,-100.00,East,100,3.0,7.0,99,-99.99,,,-99.99,,2013-03-16 11:03:00,
2013-03-16 07:12:00,32.0,32.0,-100.00,ESE,115,2.0,8.0,99,-99.99,,,-99.99,,2013-03-16 11:12:00,
2013-03-16 07:22:00,32.0,32.0,-100.00,East,95,1.0,6.0,99,-99.99,,,-99.99,,2013-03-16 11:22:00,
2013-03-16 07:32:00,32.0,32.0,-100.00,SE,125,4.0,8.0,99,-99.99,,,-99.99,,2013-03-16 11:32:00,
2013-03-16 07:43:00,32.0,32.0,-100.00,SE,125,4.0,8.0,99,-99.99,,,-99.99,,2013-03-16 11:43:00,
2013-03-16 07:52:00,32.0,32.0,-100.00,ESE,105,2.0,9.0,99,-99.99,,,-99.99,,2013-03-16 11:52:00,
2013-03-16 08:02:00,32.0,32.0,-100.00,East,90,3.0,7.0,99,-99.99,,,-99.99,,2013-03-16 12:02:00,
2013-03-16 08:12:00,32.0,32.0,-100.00,SE,135,4.0,9.0,99,-99.99,,,-99.99,,2013-03-16 12:12:00,
2013-03-16 08:22:00,32.0,32.0,-100.00,SE,135,2.0,7.0,99,-99.99,,,-99.99,,2013-03-16 12:22:00,
2013-03-16 08:32:00,32.0,32.0,-100.00,SE,135,4.0,9.0,99,-99.99,,,-99.99,,2013-03-16 12:32:00,
2013-03-16 08:42:00,32.0,32.0,-100.00,SSE,155,4.0,9.0,99,-99.99,,,-99.99,,2013-03-16 12:42:00,
2013-03-16 08:52:00,32.0,32.0,-100.00,East,95,4.0,11.0,99,-99.99,,,-99.99,,2013-03-16 12:52:00,
2013-03-16 09:02:00,32.0,32.0,-100.00,East,95,4.0,9.0,99,-99.99,,,-99.99,,2013-03-16 13:02:00,
2013-03-16 09:12:00,32.0,32.0,-100.00,ESE,110,4.0,7.0,99,-99.99,,,-99.99,,2013-03-16 13:12:00,
2013-03-16 09:22:00,32.0,32.0,-100.00,SE,145,6.0,11.0,99,-99.99,,,-99.99,,2013-03-16 13:22:00,
2013-03-16 09:32:00,33.0,32.0,-100.00,SSE,150,4.0,9.0,99,-99.99,,,-99.99,,2013-03-16 13:32:00,
2013-03-16 09:42:00,32.0,32.0,-100.00,SE,140,6.0,12.0,99,-99.99,,,-99.99,,2013-03-16 13:42:00,
2013-03-16 09:52:00,32.0,32.0,-100.00,SSE,150,3.0,9.0,99,-99.99,,,-99.99,,2013-03-16 13:52:00,
2013-03-16 10:03:00,33.0,33.0,-100.00,SE,140,2.0,6.0,99,-99.99,,,-99.99,,2013-03-16 14:03:00,
2013-03-16 10:12:00,33.0,33.0,-100.00,ESE,115,4.0,9.0,99,-99.99,,,-99.99,,2013-03-16 14:12:00,
2013-03-16 10:22:00,33.0,33.0,-100.00,ESE,110,3.0,9.0,99,-99.99,,,-99.99,,2013-03-16 14:22:00,
2013-03-16 10:32:00,33.0,33.0,-100.00,SE,130,4.0,8.0,100,-99.99,,,-99.99,,2013-03-16 14:32:00,
2013-03-16 10:42:00,33.0,33.0,-100.00,SSE,150,2.0,7.0,99,-99.99,,,-99.99,,2013-03-16 14:42:00,
2013-03-16 10:52:00,33.0,33.0,-100.00,SSE,160,3.0,8.0,99,-99.99,,,-99.99,,2013-03-16 14:52:00,
2013-03-16 11:03:00,33.0,33.0,-100.00,SE,130,3.0,7.0,99,-99.99,,,-99.99,,2013-03-16 15:03:00,
2013-03-16 11:12:00,33.0,33.0,-100.00,SE,140,4.0,8.0,99,-99.99,,,-99.99,,2013-03-16 15:12:00,
2013-03-16 11:22:00,34.0,34.0,-100.00,SE,145,2.0,7.0,99,-99.99,,,-99.99,,2013-03-16 15:22:00,
2013-03-16 11:33:00,34.0,34.0,-100.00,SE,145,5.0,7.0,99,-99.99,,,-99.99,,2013-03-16 15:33:00,
2013-03-16 11:43:00,34.0,34.0,-100.00,South,170,2.0,6.0,99,-99.99,,,-99.99,,2013-03-16 15:43:00,
2013-03-16 11:53:00,34.0,34.0,-100.00,ESE,115,2.0,7.0,99,-99.99,,,-99.99,,2013-03-16 15:53:00,
2013-03-16 12:03:00,34.0,34.0,-100.00,East,90,2.0,4.0,99,-99.99,,,-99.99,,2013-03-16 16:03:00,
2013-03-16 12:12:00,34.0,34.0,-100.00,East,95,2.0,7.0,99,-99.99,,,-99.99,,2013-03-16 16:12:00,
2013-03-16 12:23:00,34.0,34.0,-100.00,SSE,155,2.0,6.0,99,-99.99,,,-99.99,,2013-03-16 16:23:00,
2013-03-16 12:33:00,34.0,34.0,-100.00,ESE,105,3.0,6.0,99,-99.99,,,-99.99,,2013-03-16 16:33:00,
2013-03-16 12:42:00,34.0,34.0,-100.00,ENE,75,3.0,6.0,99,-99.99,,,-99.99,,2013-03-16 16:42:00,
2013-03-16 12:53:00,34.0,34.0,-100.00,ENE,75,3.0,6.0,99,-99.99,,,-99.99,,2013-03-16 16:53:00,
2013-03-16 13:03:00,35.0,35.0,-100.00,NE,55,4.0,7.0,99,-99.99,,,-99.99,,2013-03-16 17:03:00,
2013-03-16 13:13:00,34.0,34.0,-100.00,NE,55,7.0,9.0,99,-99.99,,,-99.99,,2013-03-16 17:13:00,
2013-03-16 13:23:00,33.0,33.0,-100.00,NNE,30,7.0,9.0,99,-99.99,,,-99.99,,2013-03-16 17:23:00,
2013-03-16 13:33:00,32.0,32.0,-100.00,NE,55,9.0,11.0,99,-99.99,,,-99.99,,2013-03-16 17:33:00,
2013-03-16 13:42:00,32.0,32.0,-100.00,NE,50,7.0,11.0,99,-99.99,,,-99.99,,2013-03-16 17:42:00,
2013-03-16 13:52:00,31.0,31.0,-100.00,NE,45,7.0,11.0,99,-99.99,,,-99.99,,2013-03-16 17:52:00,
2013-03-16 14:02:00,31.0,31.0,-100.00,NE,55,7.0,9.0,99,-99.99,,,-99.99,,2013-03-16 18:02:00,
2013-03-16 14:13:00,31.0,31.0,-100.00,NE,50,9.0,12.0,99,-99.99,,,-99.99,,2013-03-16 18:13:00,
2013-03-16 14:23:00,31.0,31.0,-100.00,NE,50,7.0,13.0,99,-99.99,,,-99.99,,2013-03-16 18:23:00,
2013-03-16 14:33:00,31.0,31.0,-100.00,NE,55,9.0,14.0,99,-99.99,,,-99.99,,2013-03-16 18:33:00,
2013-03-16 14:43:00,30.0,30.0,-100.00,NE,45,11.0,16.0,100,-99.99,,,-99.99,,2013-03-16 18:43:00,
2013-03-16 14:52:00,30.0,30.0,-100.00,NE,50,9.0,17.0,99,-99.99,,,-99.99,,2013-03-16 18:52:00,
2013-03-16 15:02:00,30.0,30.0,-100.00,NE,55,11.0,17.0,99,-99.99,,,-99.99,,2013-03-16 19:02:00,
2013-03-16 15:12:00,30.0,30.0,-100.00,NE,55,10.0,16.0,99,-99.99,,,-99.99,,2013-03-16 19:12:00,
2013-03-16 15:22:00,29.0,29.0,-100.00,NE,55,12.0,17.0,99,-99.99,,,-99.99,,2013-03-16 19:22:00,
2013-03-16 15:32:00,29.0,29.0,-100.00,NE,55,9.0,16.0,99,-99.99,,,-99.99,,2013-03-16 19:32:00,
2013-03-16 15:42:00,29.0,29.0,-100.00,ENE,60,9.0,13.0,99,-99.99,,,-99.99,,2013-03-16 19:42:00,
2013-03-16 15:52:00,29.0,29.0,-100.00,ENE,75,9.0,14.0,99,-99.99,,,-99.99,,2013-03-16 19:52:00,
2013-03-16 16:02:00,29.0,29.0,-100.00,ENE,60,12.0,16.0,99,-99.99,,,-99.99,,2013-03-16 20:02:00,
2013-03-16 16:12:00,29.0,29.0,-100.00,ENE,60,11.0,14.0,99,-99.99,,,-99.99,,2013-03-16 20:12:00,
2013-03-16 16:22:00,29.0,29.0,-100.00,East,80,7.0,14.0,99,-99.99,,,-99.99,,2013-03-16 20:22:00,
2013-03-16 16:33:00,29.0,29.0,-100.00,NE,50,10.0,13.0,99,-99.99,,,-99.99,,2013-03-16 20:33:00,
2013-03-16 16:42:00,29.0,29.0,-100.00,ENE,60,9.0,12.0,99,-99.99,,,-99.99,,2013-03-16 20:42:00,
2013-03-16 16:52:00,29.0,29.0,-100.00,NE,55,7.0,12.0,99,-99.99,,,-99.99,,2013-03-16 20:52:00,
2013-03-16 17:02:00,29.0,29.0,-100.00,ENE,60,7.0,12.0,99,-99.99,,,-99.99,,2013-03-16 21:02:00,
2013-03-16 17:12:00,29.0,29.0,-100.00,NE,55,8.0,11.0,99,-99.99,,,-99.99,,2013-03-16 21:12:00,
2013-03-16 17:22:00,29.0,29.0,-100.00,ENE,65,9.0,12.0,99,-99.99,,,-99.99,,2013-03-16 21:22:00,
2013-03-16 17:33:00,29.0,29.0,-100.00,ENE,75,9.0,11.0,99,-99.99,,,-99.99,,2013-03-16 21:33:00,
2013-03-16 17:43:00,29.0,29.0,-100.00,ENE,60,8.0,12.0,99,-99.99,,,-99.99,,2013-03-16 21:43:00,
2013-03-16 17:52:00,28.0,28.0,-100.00,NE,50,10.0,14.0,99,-99.99,,,-99.99,,2013-03-16 21:52:00,
2013-03-16 18:03:00,29.0,29.0,-100.00,ENE,60,7.0,14.0,99,-99.99,,,-99.99,,2013-03-16 22:03:00,
2013-03-16 18:12:00,29.0,29.0,-100.00,ENE,60,7.0,14.0,99,-99.99,,,-99.99,,2013-03-16 22:12:00,
2013-03-16 18:23:00,29.0,29.0,-100.00,NE,45,7.0,10.0,99,-99.99,,,-99.99,,2013-03-16 22:23:00,
2013-03-16 18:33:00,29.0,29.0,-100.00,ENE,60,7.0,11.0,99,-99.99,,,-99.99,,2013-03-16 22:33:00,
2013-03-16 18:42:00,28.0,28.0,-100.00,ENE,60,9.0,13.0,99,-99.99,,,-99.99,,2013-03-16 22:42:00,
2013-03-16 18:53:00,29.0,29.0,-100.00,NNE,30,7.0,12.0,99,-99.99,,,-99.99,,2013-03-16 22:53:00,
2013-03-16 19:02:00,29.0,29.0,-100.00,NE,45,4.0,9.0,99,-99.99,,,-99.99,,2013-03-16 23:02:00,
2013-03-16 19:13:00,28.0,28.0,-100.00,NE,45,9.0,12.0,99,-99.99,,,-99.99,,2013-03-16 23:13:00,
2013-03-16 19:22:00,28.0,28.0,-100.00,ENE,60,7.0,11.0,99,-99.99,,,-99.99,,2013-03-16 23:22:00,
2013-03-16 19:33:00,28.0,28.0,-100.00,NE,55,7.0,10.0,99,-99.99,,,-99.99,,2013-03-16 23:33:00,
2013-03-16 19:42:00,28.0,28.0,-100.00,NE,45,6.0,10.0,99,-99.99,,,-99.99,,2013-03-16 23:42:00,
2013-03-16 19:52:00,28.0,28.0,-100.00,NE,40,4.0,10.0,99,-99.99,,,-99.99,,2013-03-16 23:52:00,
2013-03-16 20:02:00,28.0,28.0,-100.00,NE,40,4.0,10.0,99,-99.99,,,-99.99,,2013-03-17 00:02:00,
2013-03-16 20:12:00,28.0,28.0,-100.00,NE,55,5.0,9.0,99,-99.99,,,-99.99,,2013-03-17 00:12:00,
2013-03-16 20:22:00,28.0,28.0,-100.00,NE,50,5.0,9.0,99,-99.99,,,-99.99,,2013-03-17 00:22:00,
2013-03-16 20:33:00,28.0,28.0,-100.00,NE,50,5.0,9.0,99,-99.99,,,-99.99,,2013-03-17 00:33:00,
2013-03-16 20:42:00,28.0,28.0,-100.00,NE,55,3.0,7.0,99,-99.99,,,-99.99,,2013-03-17 00:42:00,
2013-03-16 20:52:00,28.0,28.0,-100.00,NE,55,4.0,6.0,99,-99.99,,,-99.99,,2013-03-17 00:52:00,
2013-03-16 21:02:00,28.0,28.0,-100.00,NE,50,4.0,6.0,99,-99.99,,,-99.99,,2013-03-17 01:02:00,
2013-03-16 21:12:00,28.0,28.0,-100.00,ENE,60,3.0,6.0,99,-99.99,,,-99.99,,2013-03-17 01:12:00,
2013-03-16 21:22:00,28.0,28.0,-100.00,NNE,25,4.0,6.0,99,-99.99,,,-99.99,,2013-03-17 01:22:00,
2013-03-16 21:32:00,28.0,28.0,-100.00,NE,55,6.0,7.0,99,-99.99,,,-99.99,,2013-03-17 01:32:00,
2013-03-16 21:42:00,28.0,28.0,-100.00,NE,50,2.0,6.0,99,-99.99,,,-99.99,,2013-03-17 01:42:00,
2013-03-16 21:52:00,28.0,28.0,-100.00,ENE,70,2.0,6.0,99,-99.99,,,-99.99,,2013-03-17 01:52:00,
2013-03-16 22:03:00,28.0,28.0,-100.00,NE,50,1.0,4.0,99,-99.99,,,-99.99,,2013-03-17 02:03:00,
2013-03-16 22:13:00,28.0,28.0,-100.00,NNE,30,1.0,3.0,99,-99.99,,,-99.99,,2013-03-17 02:13:00,
2013-03-16 22:22:00,28.0,28.0,-100.00,NNE,20,1.0,4.0,99,-99.99,,,-99.99,,2013-03-17 02:22:00,
2013-03-16 22:33:00,29.0,29.0,-100.00,North,0,1.0,2.0,99,-99.99,,,-99.99,,2013-03-17 02:33:00,
2013-03-16 22:43:00,29.0,29.0,-100.00,North,0,2.0,4.0,99,-99.99,,,-99.99,,2013-03-17 02:43:00,
2013-03-16 22:52:00,28.0,28.0,-100.00,NE,35,2.0,3.0,99,-99.99,,,-99.99,,2013-03-17 02:52:00,
2013-03-16 23:03:00,29.0,29.0,-100.00,NNE,25,2.0,5.0,99,-99.99,,,-99.99,,2013-03-17 03:03:00,
2013-03-16 23:12:00,28.0,28.0,-100.00,North,10,2.0,5.0,99,-99.99,,,-99.99,,2013-03-17 03:12:00,
2013-03-16 23:22:00,28.0,28.0,-100.00,NNE,20,3.0,5.0,99,-99.99,,,-99.99,,2013-03-17 03:22:00,
2013-03-16 23:34:00,28.0,28.0,-100.00,NE,35,5.0,6.0,99,-99.99,,,-99.99,,2013-03-17 03:34:00,
2013-03-16 23:43:00,29.0,29.0,-100.00,NE,40,4.0,6.0,99,-99.99,,,-99.99,,2013-03-17 03:43:00,
2013-03-16 23:52:00,28.0,28.0,-100.00,NE,35,4.0,5.0,99,-99.99,,,-99.99,,2013-03-17 03:52:00,